This demonstration page uses our WeatherBlox Daily Observations layout. Learn more.

Left ArrowRight Arrow

34.74481, -87.66753

Hourly Observations for September 20, 2016

Temp ( °F °C ) Dew Point ( °F °C ) Humidity (%) Winds ( mph kmh ) Pressure ( in mb ) Visibility ( mi km ) Precip ( " mm )
12:53 am 00:53 Clear 74 23.3 64 17.8 71 71 Calm 30.06 1018 10 16 0.00 0.00
1:53 am 01:53 Clear 67 19.4 63 17.2 87 87 Calm 30.06 1018 10 16 0.00 0.00
2:53 am 02:53 Clear 68 20 63 17.2 84 84 Calm 30.06 1018 10 16 0.00 0.00
3:53 am 03:53 Clear 65 18.3 61 16.1 87 87 Calm 30.07 1018 10 16 0.00 0.00
4:53 am 04:53 Clear 65 18.3 61 16.1 87 87 Calm 30.08 1019 10 16 0.00 0.00
5:53 am 05:53 Clear 64 17.8 61 16.1 90 90 Calm 30.09 1019 8 13 0.00 0.00
6:53 am 06:53 Sunny 62 16.7 60 15.6 93 93 Calm 30.11 1020 8 13 0.00 0.00
7:53 am 07:53 Sunny 68 20 64 17.8 87 87 Calm 30.13 1020 9 14 0.00 0.00
8:53 am 08:53 Sunny 77 25 63 17.2 62 62 ENE 6 9 30.12 1020 10 16 0.00 0.00
9:53 am 09:53 Sunny 83 28.3 62 16.7 49 49 NE 9 15 30.13 1020 10 16 0.00 0.00
10:53 am 10:53 Sunny 85 29.4 61 16.1 45 45 ENE 10 17 30.12 1020 10 16 0.00 0.00
11:53 am 11:53 Sunny 86 30 59 15 40 40 VRB 5 7 30.10 1019 10 16 0.00 0.00
12:53 pm 12:53 Sunny 89 31.7 58 14.4 35 35 undefined N/A 30.08 1019 10 16 0.00 0.00
1:53 pm 13:53 Sunny 91 32.8 59 15 34 34 NE 7 11 30.06 1018 10 16 0.00 0.00
2:53 pm 14:53 Sunny 92 33.3 56 13.3 30 30 NE 9 15 30.04 1017 10 16 0.00 0.00
3:53 pm 15:53 Sunny 92 33.3 53 11.7 27 27 NNE 8 13 30.03 1017 10 16 0.00 0.00
4:53 pm 16:53 Sunny 90 32.2 53 11.7 28 28 NNE 8 13 30.04 1017 10 16 0.00 0.00
5:53 pm 17:53 Sunny 89 31.7 55 12.8 31 31 NNE 7 11 30.04 1017 10 16 0.00 0.00
6:53 pm 18:53 Clear 84 28.9 56 13.3 38 38 NE 5 7 30.04 1017 10 16 0.00 0.00
7:53 pm 19:53 Clear 79 26.1 60 15.6 52 52 N 3 6 30.06 1018 10 16 0.00 0.00
8:53 pm 20:53 Clear 78 25.6 61 16.1 56 56 N 3 6 30.07 1018 10 16 0.00 0.00
9:53 pm 21:53 Clear 76 24.4 62 16.7 62 62 Calm 30.06 1018 10 16 0.00 0.00
10:53 pm 22:53 Clear 69 20.6 62 16.7 78 78 Calm 30.07 1018 10 16 0.00 0.00
11:53 pm 23:53 Clear 69 20.6 61 16.1 76 76 Calm 30.07 1018 10 16 0.00 0.00

Powered by AerisWeather